星链-35491(STARLINK-35491)

导读 | 豆包AI

STARLINK-35491是美国SpaceX公司星链(Starlink)星座的卫星成员,于2025年10月19日由猎鹰9号火箭从卡纳维拉尔角太空力量站发射入轨。本次发射是SpaceX第10000颗星链卫星部署里程碑任务,28颗星链卫星被送入低地球轨道,STARLINK-35491将参与为全球提供高速宽带互联网服务,星链全球用户已超700万,业务覆盖150余个地区。

Basic Information
目录编号:
66113
目录名称:
STARLINK-35491
国际标识:
2025-236AD
轨道中心:
EARTH
卫星名称:
星链-35491
卫星全名:
星链-35491(STARLINK-35491)
卫星状态:
在轨 (已飞行146 天)
发射日期:
2025-10-19 UTC
国别 :
美国 (US)
星等 :
--
Orbit Information
数据来源 国际轨道数据 AOE轨道数据
星历时间 2026-03-13T18:25:31+0800
21小时前
查看轨道信息
2026-03-13T01:00:00+0800
1天前
查看轨道信息
半长轴 6853.339km 6853.38km
偏心率 0.000128 0.0001342
轨道倾角 53.161° 53.159°
近地点辐角 88.628° 85.788°
升交点赤经 86.780° 90.156°
平近点角 271.487° 232.437°
近地点 474.324km 474.323km
远地点 476.08km 476.163km
周期 94.105分钟 94.106分钟
每日圈数 15.302046 15.301908
Detailed Information
固有亮度:
5
最大亮度:
2.5
卫星平台:
Starlink V1.0
覆盖范围:
全球
运营商:
太空探索技术公司
运营商所在国:
美国
制造商(研发单位):
太空探索技术公司
制造商所在国:
美国
使用方式:
暂无
Satellite Introduction
Starlink 计划是 SpaceX 推出的全球卫星互联网项目,通过发射低轨道卫星,为全球尤其是偏远地区提供高速、低延迟的互联网服务。自 2019 年起,Starlink 已部署数千颗卫星,旨在缩小全球数字鸿沟,推动互联网普及。该项目还为军事、航空等行业提供通信支持,带来广泛经济效益。
2D Orbit Map
3D Orbit Map
Orbit Altitude Analysis Chart
Orbit Inclination Analysis Chart
Orbit Comprehensive Analysis Chart
View Comprehensive Chart